VK4VP-5 Buderim QLD AU current weather conditions

sailwx.info

Wind from 167 at 2 knots gusting 7

Air temperature 18.9° C
Dewpoint 11.4° C

Last reported at 2014-Jul-23 02:44 UTC.
Time now 2014-Jul-23 03:19 UTC

Location: S 26°42' E 153°05'.
View on Google Maps.

See reports from other nearby stations

  
Tides and Currents Weather Stations Pressure Air Temp Water Temp Dewpoint Dewpoint Depression Visibility Wind Speed Wind Dir Waves Ship Positions
date/time (UTC)wind fromknots sea level pressurealtimeterstation pressurevisibilityair tempwater tempwave heightnotes
2014-Jul-23 02:44 167 2 gusting 7 18.9
2014-Jul-23 02:34 155 2 gusting 8 18.9
2014-Jul-23 02:24 164 2 gusting 10 19.4
2014-Jul-23 02:14 186 4 gusting 11 18.9
2014-Jul-23 02:04 187 5 gusting 12 18.9
2014-Jul-23 01:54 185 4 gusting 8 18.3
2014-Jul-23 01:44 192 3 gusting 8 18.3
2014-Jul-23 01:34 203 5 gusting 10 18.3
2014-Jul-23 01:24 208 4 gusting 9 18.3
2014-Jul-23 01:14 207 3 gusting 8 18.3
2014-Jul-23 01:04 213 5 gusting 13 17.8
2014-Jul-23 00:54 191 4 gusting 10 17.8
2014-Jul-23 00:44 179 5 gusting 9 17.8
2014-Jul-23 00:34 203 5 gusting 12 17.2
2014-Jul-23 00:24 206 6 gusting 14 17.2
2014-Jul-23 00:14 195 4 gusting 10 16.7
2014-Jul-23 00:04 206 5 gusting 11 16.7
2014-Jul-22 23:54 207 4 gusting 9 16.7
2014-Jul-22 23:44 197 6 gusting 14 16.1
2014-Jul-22 23:34 199 5 gusting 15 16.1
2014-Jul-22 23:24 200 4 gusting 9 16.1
2014-Jul-22 23:14 201 4 gusting 8 15.6
2014-Jul-22 23:04 210 5 gusting 10 15.6
2014-Jul-22 22:54 208 4 gusting 9 15.6
2014-Jul-22 22:44 214 4 gusting 10 15.0
2014-Jul-22 22:34 206 3 gusting 8 14.4
2014-Jul-22 22:24 212 3 gusting 8 14.4
2014-Jul-22 22:14 211 3 gusting 7 13.9
2014-Jul-22 22:04 209 2 gusting 6 13.9
2014-Jul-22 21:54 192 2 gusting 6 13.3
2014-Jul-22 21:44 192 1 gusting 6 12.8
2014-Jul-22 21:34 192 0 gusting 3 12.2
2014-Jul-22 21:24 192 0 gusting 2 11.7
2014-Jul-22 21:14 192 11.1
2014-Jul-22 21:04 192 10.6
2014-Jul-22 20:54 192 10.6
2014-Jul-22 20:44 192 10.0
2014-Jul-22 20:34 192 10.6
2014-Jul-22 20:24 192 10.6
2014-Jul-22 20:14 192 11.7
2014-Jul-22 20:04 192 0 gusting 3 11.7
2014-Jul-22 19:54 192 0 gusting 2 11.1
2014-Jul-22 19:44 192 0 gusting 2 11.1
2014-Jul-22 19:34 192 0 gusting 2 11.1
2014-Jul-22 19:24 192 11.1
2014-Jul-22 19:14 192 11.1
2014-Jul-22 19:04 192 11.7
2014-Jul-22 18:54 192 11.7
2014-Jul-22 18:44 192 0 gusting 2 11.7
2014-Jul-22 18:34 192 0 gusting 3 11.7
2014-Jul-22 18:24 192 1 gusting 5 11.7
2014-Jul-22 18:14 192 0 gusting 2 11.7
2014-Jul-22 18:04 192 11.7
2014-Jul-22 17:54 192 11.7
2014-Jul-22 17:44 192 0 gusting 3 11.7
2014-Jul-22 17:34 192 0 gusting 3 11.7
2014-Jul-22 17:24 192 0 gusting 2 11.7
2014-Jul-22 17:14 192 0 gusting 2 11.7
2014-Jul-22 17:04 192 1 gusting 5 11.7
2014-Jul-22 16:54 192 1 gusting 3 11.7
2014-Jul-22 16:44 192 1 gusting 3 11.7
2014-Jul-22 16:34 192 0 gusting 3 11.7
2014-Jul-22 16:24 192 11.7
2014-Jul-22 16:14 192 11.7
2014-Jul-22 16:04 192 11.7
2014-Jul-22 15:54 192 11.7
2014-Jul-22 15:44 192 11.7
2014-Jul-22 15:34 192 11.1
2014-Jul-22 15:24 192 11.1
2014-Jul-22 15:14 192 11.1
2014-Jul-22 15:04 192 11.1
2014-Jul-22 14:54 192 11.1
2014-Jul-22 14:44 192 0 gusting 2 11.1
2014-Jul-22 14:34 192 11.1
2014-Jul-22 14:24 192 11.1
2014-Jul-22 14:14 192 11.1
2014-Jul-22 14:04 192 11.1
2014-Jul-22 13:54 192 11.1
2014-Jul-22 13:44 192 11.7
2014-Jul-22 13:34 193 11.7
2014-Jul-22 13:24 192 11.7
2014-Jul-22 13:14 192 11.7
2014-Jul-22 13:04 192 11.7
2014-Jul-22 12:54 192 12.2
2014-Jul-22 12:44 192 12.2
2014-Jul-22 12:34 192 12.2
2014-Jul-22 12:24 192 0 gusting 2 12.2
2014-Jul-22 12:14 192 0 gusting 1 12.2
2014-Jul-22 12:04 192 12.8
2014-Jul-22 11:54 192 12.8
2014-Jul-22 11:44 192 12.8
2014-Jul-22 11:34 192 12.8
2014-Jul-22 11:24 192 0 gusting 2 13.3
2014-Jul-22 11:14 192 13.3
2014-Jul-22 11:04 192 13.3
2014-Jul-22 10:54 192 13.3
2014-Jul-22 10:44 192 13.9
2014-Jul-22 10:34 192 13.9
2014-Jul-22 10:24 192 0 gusting 2 13.9
2014-Jul-22 10:14 192 14.4
2014-Jul-22 10:04 192 14.4
2014-Jul-22 09:54 192 0 gusting 2 14.4
2014-Jul-22 09:44 192 14.4
2014-Jul-22 09:34 192 15.0
2014-Jul-22 09:24 192 15.0
2014-Jul-22 09:14 192 1 gusting 6 15.0
2014-Jul-22 09:04 195 1 gusting 8 15.6
2014-Jul-22 08:54 197 4 gusting 10 15.6
2014-Jul-22 08:44 183 4 gusting 10 16.7
2014-Jul-22 08:34 152 4 gusting 14 17.2
2014-Jul-22 08:24 140 17.2
2014-Jul-22 08:14 141 17.2
2014-Jul-22 08:04 141 17.2
2014-Jul-22 07:54 141 17.2
2014-Jul-22 07:44 17.2
2014-Jul-22 07:34 17.8
2014-Jul-22 07:24 140 17.8
2014-Jul-22 07:14 141 18.3
2014-Jul-22 07:04 140 18.3
2014-Jul-22 06:54 140 18.3
2014-Jul-22 06:44 140 18.9
2014-Jul-22 06:34 141 18.9
2014-Jul-22 06:24 140 19.4
2014-Jul-22 06:14 140 18.9
2014-Jul-22 06:04 141 19.4
2014-Jul-22 05:54 141 0 gusting 3 19.4
2014-Jul-22 05:44 147 19.4
2014-Jul-22 05:34 139 0 gusting 8 19.4
2014-Jul-22 05:24 108 0 gusting 3 19.4
2014-Jul-22 05:14 132 0 gusting 7 19.4
2014-Jul-22 05:04 149 0 gusting 6 19.4
2014-Jul-22 04:54 149 1 gusting 8 18.9
2014-Jul-22 04:44 148 1 gusting 6 18.3
2014-Jul-22 04:34 163 2 gusting 8 18.9
2014-Jul-22 04:24 146 0 gusting 3 18.9
2014-Jul-22 04:14 125 1 gusting 6 18.9
2014-Jul-22 04:04 119 1 gusting 6 18.9
2014-Jul-22 03:54 142 0 gusting 7 18.9
2014-Jul-22 03:44 144 0 gusting 6 19.4
2014-Jul-22 03:34 146 2 gusting 8 19.4
2014-Jul-22 03:24 130 2 gusting 8 19.4
2014-Jul-22 03:14 135 2 gusting 8 20.0
2014-Jul-22 03:04 144 2 gusting 8 19.4
2014-Jul-22 02:54 131 1 gusting 6 20.0
2014-Jul-22 02:44 137 1 gusting 7 20.0
2014-Jul-22 02:34 145 2 gusting 6 19.4
2014-Jul-22 02:24 173 1 gusting 8 19.4
2014-Jul-22 02:14 177 2 gusting 8 19.4
2014-Jul-22 02:04 177 0 gusting 3 19.4
2014-Jul-22 01:54 182 2 gusting 8 19.4
2014-Jul-22 01:44 189 1 gusting 8 19.4
2014-Jul-22 01:34 195 3 gusting 7 19.4
2014-Jul-22 01:24 178 3 gusting 9 19.4
2014-Jul-22 01:14 161 2 gusting 8 19.4
2014-Jul-22 01:04 182 3 gusting 8 18.9
2014-Jul-22 00:54 198 3 gusting 8 18.9
2014-Jul-22 00:44 199 2 gusting 8 18.9
2014-Jul-22 00:34 193 3 gusting 9 18.3
2014-Jul-22 00:24 194 3 gusting 8 18.3
2014-Jul-22 00:14 177 4 gusting 10 17.8
2014-Jul-22 00:04 182 5 gusting 10 17.8
2014-Jul-21 23:54 201 5 gusting 11 17.2
2014-Jul-21 23:44 199 4 gusting 8 17.2
2014-Jul-21 23:34 209 4 gusting 8 17.2
2014-Jul-21 23:24 209 5 gusting 11 17.2
2014-Jul-21 23:14 209 4 gusting 10 16.7
2014-Jul-21 23:04 219 3 gusting 9 16.7
2014-Jul-21 22:54 221 3 gusting 11 16.1
2014-Jul-21 22:44 222 2 gusting 8 16.1
2014-Jul-21 22:34 227 3 gusting 8 15.6
2014-Jul-21 22:24 221 2 gusting 6 15.6
2014-Jul-21 22:14 190 0 gusting 3 15.0
2014-Jul-21 22:04 187 0 gusting 5 14.4
2014-Jul-21 21:54 186 0 gusting 3 13.9
2014-Jul-21 21:44 186 13.3
2014-Jul-21 21:34 187 12.8
2014-Jul-21 21:24 186 12.2
2014-Jul-21 21:14 186 11.7
2014-Jul-21 21:04 186 11.1
2014-Jul-21 20:54 186 11.1
2014-Jul-21 20:44 186 11.1
2014-Jul-21 20:34 186 11.1
2014-Jul-21 20:24 186 11.7
2014-Jul-21 20:14 186 11.7
2014-Jul-21 20:04 186 11.7
2014-Jul-21 19:54 187 11.7
2014-Jul-21 19:44 187 11.7
2014-Jul-21 19:34 11.7
2014-Jul-21 19:24 186 11.7
2014-Jul-21 19:14 187 11.7
2014-Jul-21 19:04 187 12.2
2014-Jul-21 18:54 186 12.8
2014-Jul-21 18:44 186 12.8
2014-Jul-21 18:34 187 12.8
2014-Jul-21 18:24 185 12.8
2014-Jul-21 18:14 178 12.8
2014-Jul-21 18:04 178 12.8
2014-Jul-21 17:54 178 12.2
2014-Jul-21 17:44 178 12.8
2014-Jul-21 17:34 178 12.8
2014-Jul-21 17:24 178 13.3
2014-Jul-21 17:14 177 13.3
2014-Jul-21 17:04 178 0 gusting 3 13.3
2014-Jul-21 16:54 177 13.3
2014-Jul-21 16:44 177 13.3
2014-Jul-21 16:34 178 13.3
2014-Jul-21 16:24 177 0 gusting 2 13.3
2014-Jul-21 16:14 177 0 gusting 2 13.3
2014-Jul-21 16:04 177 0 gusting 3 13.3
2014-Jul-21 15:54 178 13.3
2014-Jul-21 15:44 178 13.3
2014-Jul-21 15:34 178 13.3
2014-Jul-21 15:24 178 13.3
2014-Jul-21 15:15 178 13.3
2014-Jul-21 15:04 178 13.9
2014-Jul-21 14:54 177 14.4
2014-Jul-21 14:44 178 13.9
2014-Jul-21 14:34 178 14.4
2014-Jul-21 14:24 178 14.4
2014-Jul-21 14:14 178 14.4
2014-Jul-21 14:04 178 14.4
2014-Jul-21 13:54 178 14.4
2014-Jul-21 13:44 15.0
2014-Jul-21 13:34 178 15.0
2014-Jul-21 13:24 178 15.0
2014-Jul-21 13:14 177 15.0
2014-Jul-21 13:04 176 0 gusting 3 15.0
2014-Jul-21 12:54 163 0 gusting 3 15.0
2014-Jul-21 12:44 158 1 gusting 3 15.0
2014-Jul-21 12:34 152 0 gusting 3 15.0
2014-Jul-21 12:24 140 15.0
2014-Jul-21 12:14 114 15.0
2014-Jul-21 12:04 114 15.0
2014-Jul-21 11:54 114 15.0
2014-Jul-21 11:44 115 15.0
2014-Jul-21 11:34 114 15.0
2014-Jul-21 11:24 115 15.6
2014-Jul-21 11:14 114 15.6
2014-Jul-21 11:04 114 15.6
2014-Jul-21 10:54 114 15.6
2014-Jul-21 10:44 114 15.6
2014-Jul-21 10:34 114 15.6
2014-Jul-21 10:24 113 0 gusting 2 15.6
2014-Jul-21 10:14 112 15.6
2014-Jul-21 10:04 112 15.6
2014-Jul-21 09:54 112 15.6
2014-Jul-21 09:44 112 15.6
2014-Jul-21 09:34 113 15.6
2014-Jul-21 09:24 113 15.6
2014-Jul-21 09:14 112 15.6
2014-Jul-21 09:04 113 15.6
2014-Jul-21 08:54 112 16.1
2014-Jul-21 08:44 111 15.6
2014-Jul-21 08:34 110 0 gusting 3 15.6
2014-Jul-21 08:24 107 15.6
2014-Jul-21 08:14 152 2 gusting 9 15.6
2014-Jul-21 08:04 143 1 gusting 6 15.6
2014-Jul-21 07:54 132 2 gusting 8 15.6
2014-Jul-21 07:44 141 1 gusting 8 15.6
2014-Jul-21 07:34 141 0 gusting 6 15.6
2014-Jul-21 07:24 147 0 gusting 5 16.1
2014-Jul-21 07:14 137 0 gusting 7 16.1
2014-Jul-21 07:04 144 3 gusting 11 16.7
2014-Jul-21 06:54 142 3 gusting 9 16.7
2014-Jul-21 06:44 146 2 gusting 8 17.2
2014-Jul-21 06:34 159 2 gusting 13 17.2
2014-Jul-21 06:24 157 2 gusting 7 17.8
2014-Jul-21 06:14 138 3 gusting 9 18.3
2014-Jul-21 06:04 151 3 gusting 13 18.3
2014-Jul-21 05:54 161 3 gusting 8 18.3
2014-Jul-21 05:44 159 4 gusting 8 18.9
2014-Jul-21 05:34 165 3 gusting 9 19.4
2014-Jul-21 05:24 159 5 gusting 12 18.9
2014-Jul-21 05:14 141 4 gusting 11 18.9
2014-Jul-21 05:04 155 2 gusting 7 19.4
2014-Jul-21 04:54 167 1 gusting 7 19.4
2014-Jul-21 04:44 172 4 gusting 11 19.4
2014-Jul-21 04:34 156 5 gusting 9 19.4
2014-Jul-21 04:24 166 4 gusting 10 19.4
2014-Jul-21 04:14 172 4 gusting 12 19.4
2014-Jul-21 04:04 133 5 gusting 12 18.9
2014-Jul-21 03:54 160 3 gusting 12 19.4
2014-Jul-21 03:44 172 4 gusting 13 19.4
2014-Jul-21 03:34 170 6 gusting 16 19.4
2014-Jul-21 03:24 157 6 gusting 12 19.4
2014-Jul-21 03:14 160 5 gusting 14 19.4
2014-Jul-21 03:04 161 5 gusting 13 19.4